Flag for Tonga Weather past 2 weeks in Nukualofa, Tonga

Now
77 °F

Partly sunny.


Feels Like: 79 °F
Forecast: 74 / 79 °F
Wind: 8 mph from Southeast

Location: Fua'Amotu


UV Index: 5 (Moderate)

Visibility: N/A


Pressure: 29.98 "Hg

Humidity: 69%

Dew point: 66 °F

Location of NukualofaLocation

Historic Weather in Nukualofa

°F

Nukualofa temperature yesterday

Maximum temperature yesterday: 81 °F (at 12:00 PM)
Minimum temperature yesterday: 73 °F (at 2:00 AM)
Average temperature yesterday: 76 °F

Past Weeks' High & Low Weather Summary

 TemperatureHumidityPressure
High84 °F (Apr 12, 1:00 PM)100% (Apr 10, 5:00 PM)30.01 "Hg (Apr 10, 5:00 PM)
Low64 °F (Apr 14, 6:00 AM)58% (Apr 25, 2:00 PM)29.83 "Hg (Apr 10, 5:00 PM)
Average76 °F83%29.94 "Hg
* Reported Apr 10 4:00 PM — Apr 25 4:00 PM, Nukualofa, Weather by CustomWeather, © 2014

Note: Actual official high and low records may vary slightly from our data, if they occured in-between our weather recording intervals... More about our weather records

Advertising

Historic Weather Conditions — Data for Previous 24 hours

 ConditionsComfort  
Time TempWeatherWind HumidityBarometerVisibility
4:00 PM
Apr 25
79 °FPartly sunny.9 mph58%29.98 "HgN/A
3:00 PM81 °FPartly sunny.9 mph62%29.98 "HgN/A
2:00 PM81 °FPartly sunny.9 mph58%29.98 "HgN/A
1:00 PM81 °FPartly sunny.10 mph62%29.98 "HgN/A
12:00 PM81 °FPartly sunny.10 mph66%30.01 "HgN/A
11:00 AM77 °FScattered clouds.12 mph74%30.01 "HgN/A
10:00 AM79 °FPassing clouds.12 mph61%30.01 "HgN/A
9:00 AM77 °FPassing clouds.12 mph61%30.01 "HgN/A
8:00 AM73 °FPassing clouds.10 mph69%30.01 "HgN/A
7:00 AM73 °FPassing clouds.7 mph74%29.98 "HgN/A
6:00 AM73 °FPassing clouds.10 mph74%29.98 "HgN/A
5:00 AM73 °FPassing clouds.8 mph74%29.95 "HgN/A
4:00 AM73 °FPassing clouds.9 mph74%29.98 "HgN/A
3:00 AM73 °FPassing clouds.8 mph74%29.95 "HgN/A
2:00 AM73 °FPassing clouds.7 mph78%29.98 "HgN/A
1:00 AM73 °FPassing clouds.7 mph78%29.98 "HgN/A
12:00 AM73 °FPassing clouds.6 mph74%29.98 "HgN/A
11:00 PM
Apr 24
73 °FPassing clouds.7 mph74%30.01 "HgN/A
10:00 PM75 °FPassing clouds.9 mph69%30.01 "HgN/A
9:00 PM75 °FPassing clouds.12 mph69%30.01 "HgN/A
8:00 PM75 °FPassing clouds.8 mph74%29.98 "HgN/A
7:00 PM75 °FPassing clouds.9 mph83%29.92 "HgN/A
6:00 PM77 °FPassing clouds.6 mph74%29.92 "HgN/A
5:00 PM77 °FPartly sunny.10 mph65%29.92 "HgN/A
Weather by CustomWeather, © 2014

See weather overview